Wind_Speed
102 101 97 94 88 89 92 91 90 85 83 78 80 74 72 74 75 70 69 66 66 63 61 59 58 56 53 51 50 47 46 43 39 35 35 34 33 31 29 27 25 24 25 24 23
105 106 100 99 99 94 91 96 92 90 87 83 83 84 78 79 80 72 69 70 68 67 65 62 60 59 58 56 54 50 49 44 43 41 40 38 37 35 32 30 29 29 29 27 26
109 108 105 103 102 99 96 96 94 93 92 86 86 82 84 83 81 76 72 70 70 71 69 68 65 63 61 60 58 53 53 46 47 47 43 42 40 39 37 33 34 33 32 31 30
113 112 110 107 106 100 99 97 101 95 91 95 89 86 87 83 80 81 76 69 75 75 73 72 70 67 65 62 60 59 56 52 51 50 48 45 46 42 42 40 37 37 37 35 34
115 114 113 112 104 102 99 99 99 102 94 96 92 90 88 87 77 81 78 77 78 79 79 76 72 71 68 67 63 62 61 56 54 54 51 49 48 47 47 45 43 42 42 41 39
112 117 117 116 112 107 104 100 103 103 101 98 97 95 92 89 83 83 81 77 80 80 82 79 77 73 71 70 69 67 63 61 60 58 56 56 53 51 53 51 49 48 46 46 47
112 115 118 120 117 113 107 106 105 103 100 101 98 99 95 93 84 82 87 81 82 80 83 83 81 76 77 74 71 70 68 65 62 64 61 60 59 59 57 53 53 52 51 52 53
111 114 118 122 122 118 114 112 107 108 106 104 102 98 92 96 90 86 89 86 83 85 83 82 83 84 79 75 75 72 72 68 67 68 67 67 65 65 61 58 57 56 56 57 58
112 111 114 119 122 122 120 116 116 110 110 110 100 96 96 92 90 92 89 85 89 86 85 84 82 79 78 77 77 73 72 74 74 74 72 71 71 70 65 62 60 58 60 62 63
115 115 113 114 120 123 123 124 121 117 111 109 102 97 91 91 93 94 92 88 87 86 85 82 82 78 74 72 73 80 78 78 79 80 76 74 73 74 70 67 65 64 64 64 67
116 118 114 114 116 123 126 127 125 121 114 107 101 101 98 98 98 91 96 97 91 91 89 88 84 77 77 76 76 81 82 81 80 82 78 78 75 79 73 70 69 71 69 70 71
118 118 119 116 116 118 126 126 123 123 121 116 110 108 106 106 105 102 101 99 93 90 95 92 87 84 83 81 80 80 79 76 81 84 81 82 81 80 77 76 76 74 72 73 72
119 120 121 120 119 119 121 123 127 128 126 123 117 114 110 110 110 104 101 104 98 93 93 95 93 91 86 83 82 80 80 79 80 83 79 83 82 83 82 77 76 76 76 76 75
124 121 122 124 125 120 117 119 122 126 131 131 123 119 115 113 111 110 109 106 101 96 98 97 97 95 89 85 82 80 85 86 84 83 79 79 71 67 73 77 78 81 81 81 81
129 125 124 125 125 118 116 118 118 125 139 129 127 124 117 117 110 112 114 111 108 101 99 88 93 96 95 86 88 86 89 88 85 86 88 83 78 65 69 66 68 72 73 77 79
133 129 127 127 125 123 122 122 122 129 138 138 129 129 122 116 116 118 114 111 112 111 102 95 92 92 92 97 92 89 94 92 91 92 91 83 84 73 73 74 72 74 74 79 83
134 134 131 128 127 126 125 124 131 135 137 136 126 124 124 124 119 118 120 112 109 108 106 105 102 100 97 95 95 97 96 96 98 96 90 92 92 76 80 81 79 79 78 84 83
121 136 134 132 130 128 129 131 137 134 134 130 127 126 129 132 127 123 124 119 112 110 110 109 105 104 104 101 106 107 103 104 106 104 104 104 90 83 85 85 81 82 82 85 85
110 123 136 135 134 132 132 138 137 134 133 128 131 134 133 129 127 129 126 122 118 113 110 113 110 110 110 110 108 109 109 109 113 111 110 106 95 94 91 92 89 89 90 91 91
101 112 126 139 139 138 136 140 140 136 134 131 131 133 133 131 129 132 125 121 118 116 117 115 117 111 115 115 112 110 115 115 114 114 114 104 100 90 93 97 97 95 96 98 101
96 103 114 129 143 143 139 138 135 134 133 131 135 129 135 130 130 131 132 126 124 122 122 123 120 120 118 116 117 115 116 119 120 119 117 111 109 100 98 102 101 102 103 105 108
91 96 104 113 127 140 141 138 133 133 132 135 136 131 127 132 129 131 127 126 126 127 131 128 131 126 124 119 123 124 121 119 121 118 121 121 115 105 108 113 112 109 108 112 114
79 91 102 104 108 124 141 140 138 137 133 136 139 133 128 124 134 131 128 128 130 129 128 134 134 130 128 125 121 122 121 123 122 123 126 126 109 104 113 113 114 114 114 118 118
68 78 92 97 102 109 123 136 139 138 136 136 136 137 131 131 128 131 129 128 130 131 131 133 138 137 131 124 129 127 125 126 128 134 128 129 112 110 115 119 122 122 122 123 123
51 63 74 82 94 104 106 117 131 141 138 136 136 133 138 135 134 125 128 128 129 131 133 136 135 136 134 133 135 133 130 131 134 129 131 122 128 110 117 126 130 132 130 130 129
40 47 55 66 78 93 100 100 110 127 139 139 137 135 139 138 131 127 128 129 129 130 137 139 137 139 139 139 137 136 137 137 133 130 134 128 128 116 122 127 130 133 134 132 129
32 38 45 53 63 70 81 100 100 106 118 135 139 137 139 138 136 134 134 134 133 135 134 136 139 143 142 138 143 148 137 137 140 139 135 138 130 129 129 129 135 137 144 139 140
Wind_Direction
215 215 213 211 212 217 214 216 216 216 216 217 223 226 227 232 232 227 226 221 222 224 225 227 227 228 230 230 232 232 234 235 236 233 241 242 244 244 248 252 255 254 255 260 263
214 213 215 212 212 214 217 218 218 217 218 220 220 222 227 231 231 229 230 226 224 222 225 226 228 228 230 232 232 233 235 236 240 240 241 241 245 247 250 252 255 258 259 261 263
213 213 215 215 213 211 215 218 218 220 220 220 218 221 222 230 231 231 230 230 229 226 225 226 227 229 230 231 233 235 236 236 240 241 243 245 247 246 249 250 252 257 261 266 266
213 213 213 213 216 214 214 217 218 217 222 220 218 220 219 223 230 232 228 232 229 228 226 226 227 229 230 232 233 236 238 236 241 243 245 248 249 249 251 252 254 256 260 264 269
213 214 213 212 216 215 217 215 217 218 219 221 221 220 219 219 225 231 228 232 229 230 227 227 228 229 230 232 233 237 238 239 241 244 247 248 250 251 252 254 257 259 262 265 266
214 214 213 213 214 215 218 218 215 217 221 223 223 220 222 221 222 228 228 230 234 233 230 230 229 231 233 235 235 237 239 240 243 244 246 248 250 251 252 253 257 260 263 266 268
214 215 214 215 215 216 216 218 218 217 219 221 221 222 221 222 223 224 229 233 234 235 236 233 232 234 235 237 239 238 239 242 244 248 248 249 250 250 253 255 257 260 264 265 268
214 215 215 215 216 216 216 217 219 218 219 219 219 221 222 222 224 225 231 232 233 236 235 237 236 234 237 239 240 240 237 239 244 246 248 250 251 251 253 255 258 262 265 267 268
215 215 216 216 217 217 218 218 219 219 220 219 218 221 219 222 224 228 230 232 234 236 236 238 239 241 243 243 242 244 244 241 243 245 246 247 249 252 255 257 260 262 263 265 267
216 215 215 217 217 218 219 219 220 221 220 220 217 221 218 223 227 231 236 232 234 235 236 238 240 241 243 246 248 245 244 244 243 244 244 245 247 251 254 257 261 263 263 265 267
215 216 215 215 217 218 219 220 221 222 221 221 220 218 219 225 227 231 234 232 232 236 238 236 236 240 243 243 245 248 248 246 244 246 245 247 247 252 254 257 259 260 262 265 267
214 215 216 215 217 218 219 220 222 222 223 220 218 220 219 223 224 228 230 228 231 235 236 237 235 238 240 243 245 248 250 253 253 248 246 247 247 252 254 255 257 261 263 262 264
213 214 216 216 216 217 219 219 221 222 223 223 218 219 221 221 224 226 228 229 230 230 237 237 237 238 239 241 243 245 248 251 252 253 252 253 251 251 254 256 260 262 263 264 263
213 213 215 217 217 216 219 220 221 223 223 223 221 220 222 220 225 226 228 229 229 231 233 236 237 238 240 241 244 245 247 247 249 252 253 251 250 257 263 264 264 263 262 263 263
214 213 214 216 218 216 219 220 221 223 224 221 223 219 223 222 221 226 228 228 230 229 231 233 237 237 240 242 245 245 247 246 249 250 250 251 250 252 257 262 264 262 264 265 265
217 214 214 216 217 217 218 221 221 223 223 221 222 221 223 223 224 226 229 230 229 231 231 230 234 239 241 243 244 247 251 249 250 251 250 253 254 248 257 256 257 262 262 264 266
217 217 214 215 216 216 218 221 223 222 224 221 222 223 224 224 225 226 228 230 232 233 233 232 233 238 239 242 245 247 247 250 251 254 253 256 254 248 254 256 256 260 261 262 265
218 218 217 216 216 217 217 220 224 223 224 223 219 224 225 225 226 227 228 232 233 233 236 237 236 239 239 241 244 247 247 249 250 250 249 252 253 254 253 254 256 259 260 265 268
219 219 217 217 217 217 217 221 223 224 223 224 223 221 225 226 229 228 229 230 234 236 236 236 238 241 241 242 243 246 248 248 248 249 250 252 254 255 256 256 256 258 260 261 264
221 220 218 218 218 219 218 220 223 224 225 223 224 223 223 227 227 228 232 230 234 238 239 238 239 241 241 243 242 243 245 249 251 251 252 251 252 254 256 256 257 257 260 262 263
224 222 221 220 219 220 221 221 223 224 225 226 226 224 224 225 228 229 230 232 233 236 239 239 240 239 241 242 244 246 247 248 249 251 254 255 254 252 255 255 256 259 261 262 263
223 224 225 222 222 221 223 224 223 224 226 226 228 227 224 226 228 231 230 232 234 236 238 239 240 238 238 240 242 246 247 250 253 255 256 256 254 259 260 260 258 259 261 262 264
222 222 225 225 224 223 223 224 225 225 225 227 228 229 226 226 228 229 232 232 234 237 239 239 240 241 240 241 244 250 251 252 253 255 255 257 257 258 261 262 263 263 263 263 265
225 224 224 226 225 225 224 224 226 227 227 226 229 231 230 228 228 228 230 233 235 237 238 240 242 243 243 244 245 246 249 251 254 255 258 259 261 260 261 261 262 263 263 265 267
225 225 227 227 226 227 227 225 225 226 227 228 230 231 234 231 229 228 230 232 235 237 239 240 241 243 243 243 247 247 248 250 251 255 258 258 259 259 260 262 263 263 265 267 268
230 228 228 227 226 227 229 228 226 227 227 230 230 231 235 234 233 232 233 232 232 235 238 240 241 243 242 243 246 248 248 249 254 256 257 259 260 261 259 260 263 265 265 267 270
227 227 226 225 228 229 229 227 228 229 229 229 230 232 236 237 236 234 234 234 234 236 238 240 242 243 244 244 246 248 251 254 253 254 258 260 261 259 261 262 262 264 267 268 267
Height
10565 10581 10593 10603 10614 10628 10639 10652 10663 10673 10680 10690 10701 10714 10722 10730 10738 10748 10756 10764 10767 10776 10781 10788 10794 10799 10804 10808 10812 10816 10820 10825 10830 10834 10836 10839 10842 10846 10849 10852 10855 10857 10860 10863 10864
10546 10562 10576 10587 10599 10612 10625 10636 10648 10658 10667 10675 10687 10699 10709 10718 10727 10738 10745 10753 10759 10765 10772 10778 10784 10789 10796 10801 10805 10810 10813 10820 10823 10827 10828 10834 10836 10840 10844 10847 10850 10852 10855 10857 10859
10527 10543 10558 10570 10583 10594 10607 10619 10631 10642 10654 10664 10673 10683 10693 10705 10716 10726 10737 10743 10749 10755 10761 10767 10773 10780 10786 10792 10797 10803 10804 10816 10815 10817 10822 10826 10831 10833 10837 10842 10843 10846 10849 10851 10853
10507 10523 10539 10553 10565 10578 10591 10604 10617 10627 10638 10649 10659 10669 10679 10691 10703 10720 10726 10732 10737 10743 10749 10755 10762 10770 10776 10784 10789 10794 10798 10805 10808 10811 10815 10820 10821 10828 10831 10834 10838 10840 10842 10844 10846
10487 10503 10520 10534 10550 10562 10575 10586 10600 10612 10621 10634 10644 10655 10668 10678 10694 10703 10709 10717 10723 10730 10735 10743 10752 10758 10767 10772 10781 10785 10789 10797 10800 10803 10807 10811 10815 10820 10823 10826 10830 10832 10835 10836 10838
10466 10484 10500 10517 10530 10545 10559 10571 10582 10594 10605 10616 10629 10643 10655 10670 10678 10691 10696 10705 10711 10718 10724 10732 10740 10748 10758 10764 10769 10773 10781 10786 10790 10794 10799 10802 10806 10812 10812 10818 10821 10824 10827 10828 10828
10448 10464 10481 10497 10513 10527 10540 10553 10567 10576 10587 10599 10611 10627 10644 10656 10668 10677 10682 10692 10699 10706 10713 10720 10729 10739 10744 10750 10760 10765 10769 10776 10782 10783 10789 10794 10797 10799 10803 10810 10812 10815 10818 10818 10818
10430 10446 10461 10478 10494 10508 10521 10534 10547 10558 10567 10578 10593 10611 10635 10638 10657 10663 10670 10678 10686 10693 10700 10710 10718 10723 10734 10742 10746 10752 10758 10766 10770 10772 10777 10781 10784 10786 10794 10799 10803 10807 10808 10807 10807
10409 10426 10442 10458 10474 10490 10504 10516 10527 10537 10547 10562 10584 10599 10615 10627 10645 10646 10653 10664 10672 10680 10689 10696 10704 10715 10723 10732 10737 10744 10751 10754 10756 10758 10764 10769 10771 10776 10784 10789 10794 10798 10798 10798 10795
10388 10406 10423 10440 10455 10470 10483 10495 10506 10520 10535 10554 10571 10592 10618 10625 10624 10630 10642 10652 10660 10667 10675 10684 10692 10703 10712 10721 10732 10730 10732 10735 10741 10741 10749 10757 10762 10763 10773 10779 10784 10786 10787 10787 10783
10368 10386 10404 10421 10437 10450 10461 10476 10492 10513 10531 10551 10569 10582 10599 10599 10607 10618 10624 10634 10643 10653 10662 10670 10681 10696 10698 10704 10709 10712 10717 10724 10729 10727 10741 10746 10753 10747 10761 10770 10772 10772 10776 10776 10773
10348 10367 10386 10401 10416 10428 10441 10465 10482 10492 10507 10522 10543 10555 10566 10576 10584 10593 10603 10618 10629 10641 10642 10655 10675 10675 10680 10689 10695 10699 10705 10712 10714 10717 10727 10728 10738 10739 10749 10755 10757 10764 10765 10762 10762
10326 10347 10365 10380 10391 10409 10430 10450 10457 10473 10488 10501 10522 10535 10549 10558 10565 10577 10588 10598 10611 10622 10633 10643 10653 10655 10666 10674 10681 10687 10691 10695 10699 10700 10710 10716 10727 10731 10732 10745 10752 10751 10749 10748 10749
10305 10326 10343 10356 10371 10399 10418 10429 10441 10454 10460 10479 10503 10520 10535 10547 10559 10563 10570 10580 10599 10613 10613 10627 10639 10646 10654 10664 10667 10673 10671 10675 10680 10686 10698 10700 10719 10726 10728 10731 10737 10736 10734 10731 10730
10285 10306 10324 10341 10360 10389 10400 10408 10421 10422 10417 10460 10478 10504 10515 10532 10550 10547 10547 10568 10586 10590 10598 10621 10621 10632 10639 10648 10646 10653 10654 10660 10666 10671 10674 10687 10699 10720 10716 10720 10720 10718 10719 10718 10717
10267 10285 10303 10321 10340 10364 10371 10379 10386 10379 10392 10428 10458 10483 10500 10520 10528 10530 10539 10553 10565 10575 10589 10599 10609 10619 10631 10630 10637 10639 10639 10644 10648 10649 10665 10677 10678 10713 10703 10701 10704 10703 10707 10701 10697
10246 10264 10284 10300 10318 10334 10351 10355 10350 10354 10373 10418 10461 10478 10492 10493 10504 10512 10523 10536 10551 10564 10579 10583 10595 10600 10608 10612 10618 10621 10626 10627 10626 10635 10655 10653 10650 10698 10686 10688 10691 10688 10689 10682 10686
10221 10240 10263 10280 10295 10313 10326 10326 10321 10351 10375 10412 10447 10454 10459 10473 10476 10492 10503 10516 10536 10550 10560 10569 10579 10589 10594 10596 10597 10597 10601 10604 10605 10614 10623 10623 10656 10672 10671 10673 10675 10672 10672 10668 10669
10201 10218 10242 10260 10274 10287 10301 10300 10313 10337 10360 10395 10416 10427 10437 10452 10470 10475 10492 10513 10519 10531 10541 10547 10554 10565 10572 10570 10575 10584 10585 10585 10577 10591 10598 10614 10641 10651 10658 10654 10654 10654 10654 10653 10654
10185 10199 10217 10235 10250 10261 10273 10277 10294 10322 10342 10370 10386 10404 10420 10436 10449 10462 10478 10505 10511 10516 10518 10528 10536 10546 10550 10549 10560 10564 10560 10557 10567 10573 10574 10605 10612 10636 10634 10633 10633 10635 10633 10632 10630
10164 10182 10193 10209 10224 10238 10256 10268 10297 10316 10335 10352 10362 10388 10403 10419 10434 10444 10462 10481 10489 10492 10490 10500 10509 10519 10526 10543 10542 10540 10540 10540 10534 10543 10556 10581 10592 10612 10614 10609 10613 10616 10617 10613 10608
10152 10168 10178 10193 10210 10234 10246 10262 10286 10299 10318 10333 10346 10367 10386 10404 10415 10425 10445 10464 10465 10466 10467 10472 10469 10484 10503 10504 10509 10510 10520 10517 10522 10542 10535 10541 10574 10600 10594 10585 10593 10599 10596 10589 10586
10137 10150 10156 10174 10198 10216 10226 10249 10263 10276 10296 10313 10321 10342 10367 10384 10392 10412 10423 10434 10441 10444 10452 10452 10456 10466 10478 10489 10510 10505 10507 10507 10506 10500 10505 10516 10566 10577 10562 10566 10565 10567 10571 10565 10568
10126 10134 10141 10160 10175 10190 10208 10231 10249 10264 10276 10292 10307 10320 10342 10357 10370 10392 10401 10412 10419 10425 10425 10420 10430 10446 10468 10489 10466 10471 10482 10480 10476 10470 10501 10500 10551 10560 10546 10540 10535 10536 10539 10544 10548
10118 10126 10136 10151 10166 10173 10187 10210 10228 10241 10261 10275 10288 10305 10309 10329 10349 10372 10385 10386 10394 10401 10398 10398 10412 10423 10444 10448 10437 10455 10461 10452 10446 10471 10470 10503 10486 10546 10530 10510 10506 10510 10513 10514 10520
10111 10118 10129 10138 10146 10157 10172 10198 10210 10220 10240 10254 10273 10286 10285 10311 10336 10353 10349 10356 10367 10370 10366 10374 10398 10392 10408 10423 10421 10425 10428 10431 10452 10459 10446 10469 10474 10515 10496 10485 10480 10478 10484 10491 10492
10105 10109 10116 10126 10134 10149 10167 10177 10195 10204 10223 10237 10257 10271 10270 10279 10302 10320 10330 10335 10344 10351 10349 10349 10371 10371 10385 10407 10393 10377 10428 10434 10423 10434 10442 10432 10459 10459 10464 10465 10452 10456 10445 10469 10470